Weather History for KAXS - April, 2014

Change the Weather History Date:

Friday, April 25, 2014

  Actual Average (KLTS) Record (KLTS)
Temperature  
Mean Temperature 68 °F -  
Max Temperature 88 °F 74 °F 103 °F (2012)
Min Temperature 48 °F 50 °F 32 °F (2013)
Cooling Degree Days 3    
Growing Degree Days 18 (Base 50)    
Moisture  
Dew Point 38 °F    
Average Humidity 36    
Maximum Humidity 68    
Minimum Humidity 16    
Precipitation  
Precipitation 0.00 in - - ()
Sea Level Pressure  
Sea Level Pressure 29.92 in    
Wind  
Wind Speed 13 mph (SE)    
Max Wind Speed 29 mph    
Max Gust Speed 34 mph    
Visibility 10 miles    
Events      
Averages and records for this station are not official NWS values.
T = Trace of Precipitation, MM = Missing Value Source: NWS Daily Summary

Daily Weather History Graph

Daily Weather History Graph

Search for Another Location

Airport or City:

Trip Planner

Search our weather history database for the weather conditions in past years. The results will help you decide how hot, cold, wet, or windy it might be!

Date:

Astronomy

Apr. 25, 2014 Rise Set
Actual Time 6:53 AM CDT 8:17 PM CDT
Civil Twilight 6:27 AM CDT 8:44 PM CDT
Nautical Twilight 5:55 AM CDT 9:15 PM CDT
Astronomical Twilight 5:22 AM CDT 9:49 PM CDT
Moon 4:32 AM CDT (4/25) 4:50 PM CDT (4/25)
Length of Visible Light 14h 17m
Length of Day
13h 24m
Waning Crescent, 15% of the Moon is Illuminated
Apr 25
Waning Crescent
Apr 29
New
May 6
First Quarter
May 14
Full
May 21
Last Quarter

Hourly Weather History & Observations

Time (CDT) Temp. Dew Point Humidity Pressure Visibility Wind Dir Wind Speed Gust Speed Precip Events Conditions
12:15 AM 59.0 °F 34.0 °F 39% 29.97 in 10.0 mi ESE 6.9 mph - N/A   Clear
12:40 AM 56.8 °F 34.0 °F 42% 29.96 in 10.0 mi ESE 8.1 mph - N/A   Clear
12:55 AM 56.3 °F 34.2 °F 43% 29.96 in 10.0 mi ESE 8.1 mph - N/A   Clear
1:15 AM 56.3 °F 33.8 °F 43% 29.96 in 10.0 mi ESE 8.1 mph - N/A   Clear
1:35 AM 54.3 °F 34.5 °F 47% 29.96 in 10.0 mi ESE 8.1 mph - N/A   Clear
1:55 AM 54.0 °F 34.7 °F 48% 29.96 in 10.0 mi ESE 8.1 mph - N/A   Clear
2:15 AM 53.6 °F 34.5 °F 48% 29.96 in 10.0 mi ESE 6.9 mph - N/A   Clear
2:35 AM 51.8 °F 34.9 °F 53% 29.96 in 10.0 mi East 8.1 mph - N/A   Clear
2:55 AM 50.9 °F 35.1 °F 55% 29.95 in 10.0 mi East 8.1 mph - N/A   Clear
3:15 AM 51.6 °F 35.1 °F 53% 29.96 in 10.0 mi East 9.2 mph - N/A   Clear
3:35 AM 52.0 °F 35.1 °F 53% 29.96 in 10.0 mi ESE 8.1 mph - N/A   Clear
3:55 AM 51.4 °F 35.6 °F 55% 29.96 in 10.0 mi East 9.2 mph - N/A   Clear
4:15 AM 51.8 °F 36.0 °F 55% 29.97 in 10.0 mi ESE 8.1 mph - N/A   Clear
4:35 AM 50.5 °F 36.5 °F 59% 29.97 in 10.0 mi East 11.5 mph - N/A   Clear
4:55 AM 51.1 °F 37.0 °F 59% 29.97 in 10.0 mi East 9.2 mph - N/A   Clear
5:15 AM 50.9 °F 37.4 °F 60% 29.98 in 10.0 mi ESE 8.1 mph - N/A   Clear
5:35 AM 50.0 °F 37.6 °F 62% 29.97 in 10.0 mi ESE 8.1 mph - N/A   Clear
6:00 AM 49.3 °F 37.9 °F 65% 29.98 in 10.0 mi ESE 9.2 mph - N/A   Clear
6:15 AM 49.1 °F 37.8 °F 65% 29.99 in 10.0 mi ESE 8.1 mph - N/A   Clear
6:35 AM 48.9 °F 37.9 °F 66% 29.99 in 10.0 mi ESE 8.1 mph - N/A   Clear
6:55 AM 49.8 °F 38.3 °F 65% 30.00 in 10.0 mi ESE 6.9 mph - N/A   Clear
7:15 AM 48.4 °F 38.1 °F 68% 30.01 in 10.0 mi ESE 6.9 mph - N/A   Clear
7:35 AM 49.3 °F 38.5 °F 66% 30.03 in 10.0 mi ESE 5.8 mph - N/A   Clear
7:55 AM 51.1 °F 39.6 °F 65% 30.03 in 10.0 mi SE 5.8 mph - N/A   Clear
8:15 AM 54.1 °F 40.6 °F 60% 30.03 in 10.0 mi SE 5.8 mph - N/A   Clear
8:35 AM 57.6 °F 40.5 °F 53% 30.04 in 10.0 mi SSE 9.2 mph - N/A   Clear
9:15 AM 62.6 °F 39.4 °F 42% 30.03 in 10.0 mi SSE 16.1 mph 19.6 mph N/A   Clear
9:35 AM 65.3 °F 36.9 °F 35% 30.04 in 10.0 mi SSE 17.3 mph 23.0 mph N/A   Clear
9:55 AM 68.2 °F 34.9 °F 29% 30.04 in 10.0 mi SSE 19.6 mph 26.5 mph N/A   Clear
10:15 AM 69.1 °F 35.6 °F 29% 30.04 in 10.0 mi SSE 18.4 mph 25.3 mph N/A   Clear
10:35 AM 70.5 °F 36.7 °F 29% 30.03 in 10.0 mi SSE 18.4 mph 24.2 mph N/A   Clear
10:55 AM 73.4 °F 36.0 °F 26% 30.02 in 10.0 mi South 21.9 mph 27.6 mph N/A   Clear
11:15 AM 73.9 °F 37.9 °F 27% 30.02 in 10.0 mi South 20.7 mph - N/A   Clear
11:35 AM 74.8 °F 39.2 °F 28% 30.01 in 10.0 mi South 17.3 mph 23.0 mph N/A   Clear
11:55 AM 76.5 °F 39.0 °F 26% 30.00 in 10.0 mi South 21.9 mph 27.6 mph N/A   Clear
12:15 PM 77.9 °F 39.0 °F 25% 29.99 in 10.0 mi South 21.9 mph 25.3 mph N/A   Clear
12:35 PM 78.8 °F 39.6 °F 25% 29.98 in 10.0 mi South 20.7 mph 28.8 mph N/A   Clear
12:55 PM 80.6 °F 39.4 °F 23% 29.97 in 10.0 mi South 20.7 mph 27.6 mph N/A   Clear
1:15 PM 81.1 °F 39.2 °F 22% 29.96 in 10.0 mi South 20.7 mph 26.5 mph N/A   Clear
1:35 PM 81.5 °F 39.4 °F 22% 29.94 in 10.0 mi South 19.6 mph 31.1 mph N/A   Clear
1:55 PM 82.9 °F 38.8 °F 21% 29.93 in 10.0 mi South 18.4 mph 28.8 mph N/A   Clear
2:15 PM 83.7 °F 38.8 °F 20% 29.93 in 10.0 mi South 19.6 mph 29.9 mph N/A   Clear
2:40 PM 84.2 °F 39.4 °F 20% 29.92 in 10.0 mi South 19.6 mph 29.9 mph N/A   Clear
2:55 PM 85.1 °F 38.3 °F 19% 29.91 in 10.0 mi South 20.7 mph 27.6 mph N/A   Clear
3:15 PM 86.2 °F 37.8 °F 18% 29.90 in 10.0 mi South 23.0 mph 26.5 mph N/A   Clear
3:40 PM 87.1 °F 37.6 °F 17% 29.88 in 10.0 mi South 23.0 mph 27.6 mph N/A   Clear
3:55 PM 87.1 °F 37.6 °F 17% 29.87 in 10.0 mi SSE 23.0 mph 29.9 mph N/A   Clear
4:20 PM 86.7 °F 37.4 °F 17% 29.86 in 10.0 mi South 19.6 mph 29.9 mph N/A   Clear
4:40 PM 88.0 °F 37.4 °F 17% 29.85 in 10.0 mi South 28.8 mph - N/A   Clear
4:55 PM 87.8 °F 37.0 °F 17% 29.84 in 10.0 mi SSE 23.0 mph 34.5 mph N/A   Clear
5:15 PM 88.3 °F 37.0 °F 16% 29.83 in 10.0 mi SSE 24.2 mph 33.4 mph N/A   Clear
5:40 PM 86.9 °F 36.1 °F 16% 29.82 in 10.0 mi South 19.6 mph 31.1 mph N/A   Clear
5:55 PM 86.9 °F 36.0 °F 16% 29.82 in 10.0 mi South 23.0 mph 28.8 mph N/A   Clear
6:15 PM 85.3 °F 36.5 °F 18% 29.82 in 10.0 mi SSE 24.2 mph 28.8 mph N/A   Clear
6:40 PM 84.7 °F 37.2 °F 18% 29.80 in 10.0 mi SSE 23.0 mph 31.1 mph N/A   Clear
6:55 PM 84.2 °F 38.5 °F 20% 29.79 in 10.0 mi SE 23.0 mph - N/A   Clear
7:15 PM 83.8 °F 39.4 °F 21% 29.79 in 10.0 mi SSE 26.5 mph 31.1 mph N/A   Clear
7:35 PM 82.8 °F 39.4 °F 21% 29.78 in 10.0 mi SE 24.2 mph - N/A   Clear
7:55 PM 81.0 °F 39.7 °F 23% 29.78 in 10.0 mi SE 20.7 mph 29.9 mph N/A   Clear
8:15 PM 79.7 °F 40.1 °F 24% 29.77 in 10.0 mi SE 21.9 mph 27.6 mph N/A   Clear
8:35 PM 78.6 °F 40.3 °F 25% 29.77 in 10.0 mi SE 21.9 mph 28.8 mph N/A   Clear
8:55 PM 77.4 °F 40.6 °F 27% 29.78 in 10.0 mi SE 21.9 mph 26.5 mph N/A   Clear
9:15 PM 76.8 °F 41.0 °F 28% 29.78 in 10.0 mi SE 21.9 mph 28.8 mph N/A   Clear
9:35 PM 75.7 °F 41.0 °F 29% 29.79 in 10.0 mi SE 21.9 mph 28.8 mph N/A   Clear
10:00 PM 74.8 °F 40.6 °F 29% 29.79 in 10.0 mi SE 21.9 mph - N/A   Clear
10:15 PM 74.5 °F 40.1 °F 29% 29.79 in 10.0 mi SE 23.0 mph 27.6 mph N/A   Clear
10:35 PM 73.6 °F 40.1 °F 30% 29.80 in 10.0 mi SE 19.6 mph 25.3 mph N/A   Clear
10:55 PM 73.4 °F 39.9 °F 30% 29.80 in 10.0 mi SE 19.6 mph - N/A   Clear
11:15 PM 72.5 °F 40.1 °F 31% 29.79 in 10.0 mi SE 19.6 mph 25.3 mph N/A   Clear
11:35 PM 72.3 °F 40.5 °F 32% 29.79 in 10.0 mi SE 18.4 mph 25.3 mph N/A   Clear
11:55 PM 71.1 °F 40.6 °F 33% 29.79 in 10.0 mi SE 15.0 mph 23.0 mph N/A   Clear